Погода в Роли

США     35°51′00″N   78°40′40″W
темп.,
°C
ветер,
м/с
пор.,
м/с
влажн.,
%
обл.,
%
осадки,
мм/ч
давл.,
гПа
погр.,
м
20 апреля, вт
вт2023:00+12зсз23710 0.0 101569
02:00+11ссз11700 0.0 101614
05:00+9зюз117367 0.0 101713
08:00+12зюз1266100 0.0 101973
11:00+19ююз2241100 0.0 1019853
14:00+22ююз3434100 0.0 10172004
17:00+22ююз46358 0.0 10152340
20:00+17ююв385441 0.0 1014229
21 апреля, ср
ср2123:00+16ююз41163100 0.0 1015711
02:00+13ююз31077100 0.0 1014376
05:00+13ю388666 0.1 1012230
08:00+15ююз412860 0.3 1011504
11:00+22юз713435 0.0 10092122
14:00+15сз8116597 0.2 1010828
17:00+15сз8113635 0.0 10121473
20:00+10сз612410 0.0 10151324
22 апреля, чт
чт2223:00+7сз612500 0.0 10191132
02:00+5сз39572 0.0 1020600
05:00+3зсз266566 0.0 1021203
08:00+4зсз39592 0.0 1023418
11:00+11сз46295 0.0 10221601
14:00+14зсз47245 0.0 10202578
17:00+15з5826100 0.0 10192790
20:00+11зюз254350 0.0 1021182
23 апреля, пт
пт2323:00+8сз26620 0.0 1023144
02:00+7ссз25610 0.0 1023142
05:00+5ссз25660 0.0 1024125
08:00+7ссз2458100 0.0 1025218
11:00+13зсз2336100 0.0 10251011
14:00+17зюз343199 0.0 10221861
17:00+18зюз343059 0.0 10202046
20:00+13ю11462 0.0 102010
24 апреля, сб
сб2423:00+11зсз11550 0.0 102110
02:00+10ю125927 0.0 102019
05:00+10зюз1161100 0.0 102011
08:00+11ююз1160100 0.0 102160
11:00+16ююз2452100 0.0 1020462
14:00+16ююз3573100 0.3 1019565
17:00+14вюв2797100 5.6 1016455
20:00+14юв51298100 12.9 1012809